Location: Helsinki
(60.1699°N, 24.9384°E)
Time: 23:13:56
(UTC+02:00)

Altair - Pass Details

Date: 27 October 2020
Orbit: 1502 x 1682 km, 47.2° (Epoch: 25 November)

Event Time Altitude Azimuth Distance (km) Brightness Sun altitude
Rises 04:21:07 0° 179° (S) 4,654 9.9 -23.8°
Reaches altitude 10° 04:26:24 10° 154° (SSE) 3,705 9.6 -23.2°
Maximum altitude 04:30:06 13° 130° (SE) 3,495 9.8 -22.8°
Drops below altitude 10° 04:33:51 10° 106° (ESE) 3,763 10.4 -22.3°
Sets 04:39:17 0° 82° (E) 4,795 11.6 -21.7°
